| DS18B20 | SHTC3 | PZEM-004T | WiFi | ||||||||
|---|---|---|---|---|---|---|---|---|---|---|---|
| ID | Date d/m/Y & Time | data1 สูง | data2 ต่ำ | data3 นอก | temp pcb | hum pcb | Volt | Amp | Watt | rssi | Time |
| 14331 | 20/08/2026 11:10:31 | 31.0  | 30.1  | 31.8  | 32.0  | 64.4  | 238.3  | 0.04  | 4.6  | -79  | 11:10 |
| 14330 | 20/08/2026 11:05:48 | 30.9  | 30.1  | 31.5  | 32.0  | 64.4  | 238.2  | 0.04  | 4.6  | -79  | 11:05 |
| 14329 | 20/08/2026 11:01:04 | 30.9  | 30.0  | 31.5  | 31.8  | 64.5  | 237.5  | 0.04  | 4.6  | -76  | 11:01 |
| 14328 | 20/08/2026 10:56:21 | 30.9  | 30.0  | 31.2  | 31.8  | 64.5  | 237.2  | 0.04  | 4.6  | -78  | 10:56 |
| 14327 | 20/08/2026 10:51:37 | 30.9  | 29.9  | 31.2  | 31.8  | 64.5  | 236.9  | 0.04  | 4.6  | -76  | 10:51 |
| 14326 | 20/08/2026 10:46:54 | 30.9  | 29.9  | 31.0  | 31.9  | 64.7  | 236.3  | 0.04  | 4.6  | -77  | 10:46 |
| 14325 | 20/08/2026 10:42:11 | 30.8  | 29.9  | 31.2  | 31.7  | 64.7  | 236.6  | 0.04  | 4.6  | -78  | 10:42 |
| 14324 | 20/08/2026 10:37:28 | 30.8  | 29.9  | 31.2  | 31.8  | 64.7  | 234.2  | 0.04  | 4.6  | -79  | 10:37 |
| 14323 | 20/08/2026 10:32:45 | 30.8  | 29.8  | 31.2  | 31.8  | 64.7  | 234.6  | 0.04  | 4.6  | -77  | 10:32 |
| 14322 | 20/08/2026 10:28:01 | 30.7  | 29.8  | 31.2  | 31.6  | 64.8  | 232.8  | 0.04  | 4.6  | -79  | 10:28 |
| 14321 | 20/08/2026 10:23:18 | 30.6  | 29.8  | 31.1  | 31.4  | 64.8  | 234.9  | 0.04  | 4.6  | -78  | 10:23 |
| 14320 | 20/08/2026 10:18:35 | 30.5  | 29.7  | 31.0  | 31.5  | 65.1  | 235.0  | 0.04  | 4.6  | -79  | 10:18 |
| 14319 | 20/08/2026 10:13:51 | 30.4  | 29.7  | 30.8  | 31.6  | 65.1  | 235.5  | 0.04  | 4.6  | -79  | 10:13 |
| 14318 | 20/08/2026 10:09:08 | 30.3  | 29.6  | 30.4  | 31.4  | 65.3  | 234.7  | 0.04  | 4.6  | -76  | 10:09 |
| 14317 | 20/08/2026 10:04:25 | 30.2  | 29.6  | 30.6  | 31.4  | 65.3  | 234.7  | 0.04  | 4.6  | -78  | 10:04 |
| 14316 | 20/08/2026 09:59:41 | 30.2  | 29.6  | 30.5  | 31.4  | 65.4  | 235.3  | 0.04  | 4.6  | -77  | 09:59 |
| 14315 | 20/08/2026 09:54:58 | 30.2  | 29.6  | 30.2  | 31.1  | 65.4  | 235.5  | 0.04  | 4.6  | -77  | 09:54 |
| 14314 | 20/08/2026 09:50:14 | 30.1  | 29.5  | 30.2  | 31.1  | 65.5  | 235.3  | 0.04  | 4.6  | -76  | 09:50 |
| 14313 | 20/08/2026 09:45:31 | 30.1  | 29.5  | 30.2  | 31.1  | 65.6  | 235.5  | 0.04  | 4.6  | -78  | 09:45 |
| 14312 | 20/08/2026 09:40:48 | 30.1  | 29.5  | 30.2  | 31.1  | 65.6  | 235.0  | 0.04  | 4.6  | -76  | 09:40 |
| 14311 | 20/08/2026 09:36:04 | 30.1  | 29.4  | 30.4  | 31.0  | 65.7  | 232.3  | 0.04  | 4.6  | -78  | 09:36 |
| 14310 | 20/08/2026 09:31:21 | 30.0  | 29.4  | 30.2  | 31.0  | 65.7  | 232.0  | 0.04  | 4.6  | -77  | 09:31 |
| 14309 | 20/08/2026 09:26:38 | 29.9  | 29.4  | 30.4  | 31.0  | 66.0  | 232.8  | 0.04  | 4.6  | -77  | 09:26 |
| 14308 | 20/08/2026 09:21:54 | 29.8  | 29.4  | 30.5  | 31.0  | 66.0  | 232.9  | 0.04  | 4.6  | -76  | 09:21 |